CAPE
5 5 5 5 2 5 6 6 6 4 4 5 5 4 4 5 4 4 5 5 6 6 6 4 4 4 5 3 4 6 5 0 0 0 0 0 0 0 0 66 1402 2637 2046 946 610 658 675 903 914 965 1388 1246 963 901 853 850 709 706 514 223 164 97 105 224 276 457 366 485 680 705 506 511 245 891 877 1218 895 760 791 916 1276 633 475 722 0 0 0 0
5 6 7 5 2 4 7 8 6 5 4 3 4 2 5 5 7 6 5 5 4 5 5 4 4 3 4 4 4 0 1 0 0 0 0 0 0 53 99 421 2150 2684 1808 382 552 554 611 894 1551 1739 1490 1299 1184 1020 816 943 799 723 433 391 302 263 556 463 523 471 414 664 854 706 789 763 934 910 610 1313 905 929 790 1045 1346 764 606 105 0 0 0 4
6 6 6 6 4 4 6 8 6 6 5 2 2 2 3 6 4 4 4 5 6 5 5 6 4 4 3 3 4 1 1 0 0 0 0 0 0 151 0 1268 2275 3276 572 571 563 638 678 1445 1772 1831 1615 1474 1365 1273 1020 1026 763 872 597 567 295 428 451 574 695 736 596 698 673 676 780 993 756 962 750 1194 728 974 1057 571 1016 785 462 0 0 0 0 0
7 7 7 6 5 4 6 6 6 4 3 1 4 5 5 5 2 0 1 4 4 5 6 5 5 3 3 2 2 1 1 0 0 0 0 4 0 425 0 1842 2160 3437 769 661 682 720 1278 1912 1910 1733 1724 1639 1898 1436 1154 1298 995 1296 700 697 919 732 588 765 755 879 612 914 848 929 958 734 538 1363 1298 789 634 912 1447 1061 756 504 480 0 0 0 0 0
7 7 7 6 4 4 7 6 5 1 1 3 4 5 4 3 0 0 1 1 4 5 6 7 4 2 2 0 0 1 0 0 0 115 198 164 347 332 276 1941 2190 2548 1632 1118 646 819 1753 1610 1546 1689 1500 1457 1796 1190 974 1564 1228 1067 907 1463 1182 686 611 907 1045 1357 1012 887 1114 1048 775 572 1013 1836 1340 881 471 540 746 748 944 483 367 0 0 0 0 0
6 7 7 6 4 5 6 5 1 2 4 4 4 4 3 1 0 1 1 1 2 4 6 5 4 2 0 1 0 1 0 0 0 10 786 290 726 330 850 1975 2408 1658 1602 1513 1121 1213 1485 1447 1338 1659 1543 1220 1844 1029 1285 1500 1464 709 1025 1508 1299 1040 1141 1022 1148 1314 1162 1138 1260 803 518 1072 1231 1408 1307 817 968 810 908 733 915 671 369 0 0 0 0 0
6 6 7 5 3 4 2 1 2 3 4 4 4 1 0 0 0 1 1 1 1 4 2 3 3 1 0 0 0 0 0 0 0 310 905 318 968 892 2007 1995 2869 1508 1825 2189 1288 1473 1446 1392 1589 1710 1718 1248 1237 1274 1324 1915 1445 714 507 1101 1048 923 937 1087 1340 1472 1565 1170 1059 1034 1353 880 1109 800 736 850 949 1141 593 438 648 948 0 0 0 0 0 0
5 6 6 3 3 4 2 2 3 3 3 2 1 1 1 0 0 1 0 0 2 2 3 2 2 0 0 0 0 0 0 0 47 588 474 520 1199 1448 2092 1469 1764 1239 1608 2007 1575 1415 1432 1609 1632 1600 1494 1172 1061 1130 1209 1725 1426 1151 860 1006 1253 777 946 1099 1296 1616 1400 981 1422 1609 1640 785 850 1038 603 942 989 841 1228 613 713 747 0 0 0 1 2 0
4 5 5 3 3 3 1 2 3 2 1 0 2 1 0 0 0 1 0 0 1 2 3 1 0 0 0 0 0 0 0 8 429 584 643 697 605 1493 1130 1121 1351 1386 1546 1839 2025 1299 1375 1531 1565 1344 1325 1205 552 602 722 474 169 774 785 896 784 1034 1162 918 848 952 970 1625 1672 1768 1597 1495 2029 1833 1914 1674 1910 2300 2168 684 678 246 0 0 0 11 14 1
3 4 6 2 2 2 1 2 2 0 0 0 0 0 0 1 0 0 0 0 0 2 2 0 0 2 0 0 0 0 0 626 581 686 415 383 875 1055 573 1050 1052 1371 1384 1689 1858 2002 1102 1130 1362 1345 1092 587 358 637 1142 300 503 880 1042 1683 1010 1190 1279 800 614 879 1083 1321 1064 1065 1121 1420 1658 1965 1530 1617 2892 2136 1246 599 598 68 20 2 43 32 10 16
2 4 4 2 2 1 1 1 1 0 0 0 0 1 1 1 0 0 0 0 0 2 1 0 0 0 0 0 0 0 336 538 601 606 869 807 877 669 260 569 1088 1068 1349 1448 1746 1904 2070 1150 1128 1009 704 810 174 340 703 474 1057 823 1262 1092 1229 1381 1072 580 546 855 1238 1165 1280 1054 1170 1734 1888 1437 1237 1385 1973 2139 885 569 342 199 183 16 277 51 17 32
2 3 3 2 2 2 1 2 1 1 0 0 0 0 0 0 0 1 0 0 0 1 0 0 0 0 0 0 0 0 49 218 545 686 1091 934 474 298 219 335 1107 964 1303 1482 1792 2009 2099 2110 577 347 282 347 608 365 547 514 1040 1172 1496 1104 862 1239 790 937 641 747 1263 1396 1255 1740 1544 1677 1519 1410 1258 2390 1955 1917 815 395 328 342 332 154 503 74 43 29
3 4 3 2 1 1 2 1 2 1 1 1 1 1 0 1 0 0 0 0 0 0 0 0 0 0 0 0 0 0 0 206 334 443 625 457 166 265 280 334 955 712 1329 1743 1961 1959 2054 2012 1271 833 132 259 77 411 560 708 1026 1161 1429 1176 1016 1379 1272 1560 1453 1034 1592 1463 1483 1629 620 904 1381 1625 1635 1761 1550 1358 878 854 530 440 339 276 430 149 148 28
3 4 4 2 1 2 1 2 1 1 1 0 1 1 1 0 0 0 0 0 0 0 0 0 0 0 0 0 0 0 0 40 37 192 344 129 15 50 322 366 379 649 1210 1614 1937 1892 1580 1297 955 752 132 95 646 595 672 226 330 920 1002 999 890 645 1109 1564 1141 1184 1063 1428 1269 1188 565 429 986 1252 1290 1545 1532 952 808 1092 423 474 408 473 378 218 175 21
2 3 2 2 1 1 2 1 1 1 1 1 1 1 1 0 0 0 0 0 0 0 0 0 0 0 0 0 0 0 534 0 0 7 111 0 0 0 291 370 366 457 1068 1422 1821 1742 1686 1611 1204 251 441 300 368 506 372 78 620 339 690 1027 1007 941 1698 1656 1649 1301 761 904 1151 1366 597 167 650 1038 1140 1499 1469 1231 746 1051 549 482 110 447 383 180 206 35
1 2 2 2 2 2 1 1 1 0 1 1 0 0 0 0 0 0 0 0 0 0 0 0 0 0 0 0 0 667 65 0 0 0 25 0 0 0 0 325 312 482 573 1239 1545 1653 1579 1397 1087 656 50 59 177 435 115 2 98 220 321 652 872 884 1477 1790 1804 1010 1509 1245 1091 1251 614 858 955 1243 1005 1396 1524 1396 846 1054 642 444 402 442 405 114 300 74
1 2 4 3 1 1 1 0 0 0 0 0 0 0 0 0 0 0 0 0 0 0 0 0 0 0 0 0 0 0 0 0 0 0 4 0 0 0 0 90 295 267 500 602 809 756 706 742 774 286 44 84 166 224 49 12 18 9 82 389 640 975 1248 1040 1810 1256 1554 1049 949 1037 1200 959 1132 1152 893 1497 1517 1269 1020 1176 992 392 390 426 232 74 317 39
2 3 3 2 2 1 1 0 0 0 0 0 1 0 0 0 0 0 0 0 0 0 0 0 0 0 0 0 0 0 0 0 0 0 12 0 0 0 0 7 155 286 367 427 513 536 568 642 504 304 35 30 299 17 6 9 0 2 1 20 4 1103 851 787 966 1203 1371 1084 934 976 1151 1374 1093 1038 1068 1448 1626 1320 1131 1175 1079 522 195 9 60 82 224 26
2 2 2 3 1 1 1 0 0 0 0 0 2 0 0 0 0 0 0 0 0 0 0 0 0 0 0 0 0 0 0 0 0 1 0 0 0 0 0 8 298 430 585 612 772 691 706 702 506 307 300 19 9 12 44 40 18 1 14 27 104 878 1203 1058 1130 1349 1411 1133 1454 1142 1031 1144 1065 1068 1224 1476 1539 1389 1226 1137 1098 836 50 14 47 122 248 8
2 2 2 3 2 1 1 1 0 0 0 0 0 0 0 0 0 0 0 0 0 0 0 0 0 0 0 0 0 0 0 0 17 54 8 1 26 27 28 233 409 448 610 742 793 805 819 561 19 0 162 29 52 57 118 76 24 1 20 66 76 648 938 900 961 1324 1510 1393 1505 1426 1319 1257 1017 1111 1361 1460 1450 1489 1295 1107 1085 959 240 127 64 125 212 38
2 3 3 1 2 2 0 1 0 0 0 1 0 0 0 0 0 0 0 0 0 0 0 0 0 0 0 0 0 0 0 0 0 0 144 161 168 181 255 265 402 444 505 586 571 414 451 428 12 1 0 133 28 190 133 56 30 22 47 37 285 614 704 938 942 1283 1587 1430 1264 1568 1500 1221 1042 1079 1362 1398 1357 1444 1324 1085 1036 974 499 401 262 108 145 374
4 2 2 1 1 2 1 0 0 0 0 1 0 0 0 0 0 0 0 0 0 0 0 0 0 0 0 0 0 0 0 0 0 0 0 259 17 101 248 106 206 347 429 417 386 288 230 94 66 15 13 81 65 140 118 57 12 8 4 0 485 796 966 1073 904 1269 1692 1409 764 1044 1201 1112 1049 986 1268 1188 1175 1279 1204 971 998 937 844 410 329 362 86 384
2 2 0 3 1 1 0 0 0 0 0 0 0 0 0 0 0 0 0 0 0 0 0 0 0 0 0 0 0 0 0 0 0 0 0 50 0 0 0 0 0 0 0 21 298 281 48 0 0 2 8 54 24 69 51 38 14 6 14 69 642 838 856 802 757 1166 1638 1228 400 529 1048 1045 1063 1061 1056 1052 981 997 883 888 1006 932 886 562 400 422 362 327
2 2 1 1 2 0 0 0 0 0 0 0 0 0 0 0 0 0 0 0 0 0 0 0 0 0 0 0 0 0 0 0 0 0 0 0 0 0 0 0 0 0 0 0 0 175 0 0 0 6 49 54 39 151 147 57 0 0 11 1 438 788 786 566 711 971 1339 646 466 380 508 677 952 1111 1090 1074 1050 972 901 983 1079 983 901 817 448 423 413 329
2 2 1 1 0 1 0 0 0 0 0 0 0 0 0 0 0 0 0 0 0 0 0 0 0 0 0 0 0 0 0 0 0 0 0 0 0 0 0 0 0 0 0 0 8 90 0 0 0 26 63 86 117 46 15 57 83 40 0 0 273 674 748 710 830 846 846 596 501 344 321 346 625 849 899 941 1049 1009 950 910 1042 1087 966 904 592 491 450 74
1 2 1 1 0 1 0 0 0 0 0 0 0 0 0 0 0 0 0 0 0 0 0 0 0 0 0 0 0 0 0 0 0 0 0 0 0 0 0 0 0 0 0 0 0 0 0 0 0 8 63 34 40 29 72 72 106 2 6 0 172 583 656 841 873 834 559 447 374 420 288 278 452 823 786 689 736 897 930 882 862 969 1038 854 747 578 472 105
0 2 1 0 0 2 0 0 0 0 0 0 0 0 0 0 0 0 0 0 0 0 0 0 0 0 0 0 0 0 0 0 0 0 0 0 0 0 0 0 0 0 0 0 0 0 0 0 0 0 24 32 78 2 123 59 14 107 0 16 130 537 725 861 784 528 417 319 371 417 311 236 299 466 754 721 583 655 762 800 808 806 933 937 774 678 597 470
1 0 2 0 0 1 0 0 0 0 0 0 0 0 0 0 0 0 0 0 0 0 0 0 0 0 0 0 0 0 0 0 0 0 0 0 0 0 0 0 0 0 0 0 0 0 0 0 0 0 6 38 22 101 80 51 2 19 0 42 224 352 767 768 520 366 392 390 460 449 412 231 281 353 408 731 738 676 687 704 714 791 820 800 792 774 648 587
0 0 0 0 0 0 0 0 0 0 0 0 0 0 0 0 0 0 0 0 0 0 0 0 0 0 0 0 0 0 0 0 0 0 0 0 0 0 0 0 0 0 0 0 0 0 0 12 0 2 13 25 48 62 12 105 106 70 2 41 26 66 423 545 276 353 344 390 417 404 412 257 276 246 358 657 767 764 729 722 755 802 858 826 793 808 671 627
0 0 0 0 1 0 0 0 0 0 0 0 0 0 0 0 0 0 0 0 0 0 0 0 0 0 0 0 0 0 0 0 0 0 0 0 0 0 0 0 0 0 0 0 0 0 0 1 16 44 58 64 39 65 3 98 175 155 55 0 0 19 6 209 315 268 364 369 349 365 401 115 126 21 342 410 601 702 746 758 788 822 894 870 771 775 675 609
0 0 0 0 0 0 0 0 0 0 0 0 0 0 0 0 0 0 0 0 0 0 0 0 0 0 0 0 0 0 0 0 0 0 0 0 0 0 0 0 0 0 0 0 0 0 0 10 172 266 76 82 43 229 211 172 43 74 162 8 101 28 0 306 225 187 273 289 70 141 316 46 55 12 124 347 434 545 627 654 752 846 908 937 806 771 740 686
0 0 0 0 0 1 0 0 0 0 0 0 0 0 0 0 0 0 0 0 0 0 0 0 0 0 0 0 0 0 0 0 0 0 0 0 0 0 0 0 0 0 0 0 0 0 0 0 65 232 244 241 241 61 10 194 136 2 0 104 33 41 0 155 116 23 191 84 0 0 78 29 1 0 104 106 130 380 529 548 675 806 904 949 860 806 846 814
0 0 0 0 0 0 0 0 0 0 0 0 0 0 0 0 0 0 0 0 0 0 0 0 0 0 0 0 0 0 0 0 0 0 0 0 0 0 0 0 0 0 0 0 0 0 0 0 0 114 230 231 208 164 40 103 175 54 173 157 47 116 0 20 102 19 0 0 1 0 10 17 14 0 6 127 65 174 462 545 644 796 875 899 910 864 860 875
0 0 0 0 0 0 0 0 0 0 0 0 0 0 0 0 0 167 0 0 0 0 0 0 0 0 0 0 0 0 0 0 0 0 0 0 0 0 0 0 0 0 0 0 0 0 0 0 0 72 282 117 160 71 32 200 249 258 229 173 142 86 0 0 0 46 52 12 6 1 0 0 0 0 0 77 87 70 442 545 595 714 720 734 801 810 776 794
0 0 0 0 0 0 0 0 0 0 0 0 0 0 0 0 0 0 0 0 0 0 0 0 0 0 0 0 0 0 0 0 0 0 0 0 0 0 0 0 0 0 0 0 0 0 0 0 0 6 81 127 111 60 24 14 204 242 171 50 10 132 3 0 0 2 9 7 2 13 3 0 1 0 0 21 66 44 177 524 596 656 609 616 650 765 761 805
0 0 0 0 0 0 0 0 0 0 0 0 0 0 0 0 0 0 0 0 0 0 0 0 0 0 0 0 0 0 0 0 0 0 0 0 0 0 0 0 0 0 0 0 0 0 0 0 0 0 0 19 37 64 79 9 278 296 9 29 165 165 7 14 22 42 1 12 32 0 71 0 0 0 0 4 30 52 91 307 545 622 628 627 557 568 682 582
0 0 0 0 0 0 0 0 0 0 0 0 0 0 0 0 0 0 0 0 0 0 0 0 0 0 0 0 0 0 0 0 0 0 0 0 0 0 0 0 0 0 0 0 0 0 0 0 0 0 0 0 5 66 24 151 222 192 45 199 194 148 22 7 3 1 6 12 16 0 22 0 0 0 0 7 25 73 115 162 518 598 652 634 573 491 598 625
0 0 0 0 0 0 0 0 0 0 0 0 0 0 0 0 0 0 0 0 0 0 0 0 0 0 0 0 0 0 0 0 0 0 0 0 0 0 0 0 0 0 0 0 0 0 0 0 0 0 0 14 9 46 45 31 14 230 215 40 0 93 0 4 0 0 13 8 7 10 12 0 0 0 0 0 19 51 148 263 426 570 618 584 529 482 534 627
0 0 0 0 0 0 0 0 0 0 0 0 0 0 0 0 0 0 0 0 0 0 0 0 0 0 0 0 0 0 0 0 0 0 0 0 0 0 0 0 0 0 0 0 0 0 0 0 0 0 0 0 16 0 11 11 22 143 216 134 32 0 0 0 1 2 0 16 10 12 4 0 0 0 0 0 3 59 188 350 365 515 598 560 502 503 606 689
0 0 0 0 0 0 0 0 0 0 0 0 0 0 0 0 0 0 0 0 0 0 0 0 0 0 0 0 0 0 0 0 0 0 0 0 0 0 0 0 0 0 0 0 0 0 0 0 0 0 0 0 0 5 88 0 48 26 0 52 0 0 0 0 0 5 5 8 7 12 6 0 0 0 0 0 0 73 166 296 392 444 534 585 577 586 666 697
0 0 0 0 0 0 0 0 0 0 0 0 0 0 0 0 0 0 0 0 0 0 0 0 0 0 0 0 0 0 0 0 0 0 0 0 0 0 0 0 0 0 0 0 0 0 0 0 0 0 0 0 3 0 0 144 0 60 50 5 0 0 2 0 0 2 11 4 9 7 10 0 0 0 0 0 2 93 182 401 441 473 478 502 489 44 96 490
0 0 0 0 0 0 0 0 0 0 0 0 0 0 0 0 0 0 0 0 0 0 0 0 0 0 0 0 0 0 0 0 0 0 0 0 0 0 0 0 0 0 0 0 0 0 0 0 0 0 0 0 0 0 0 0 0 41 27 3 0 0 0 0 0 6 10 15 9 18 2 0 0 0 9 82 145 322 421 474 483 466 477 475 361 60 338 340
0 0 0 0 0 0 0 0 0 0 0 0 0 0 0 0 0 0 0 0 0 0 0 0 0 0 0 0 0 0 0 0 0 0 0 0 0 0 0 0 0 0 0 0 0 0 24 0 0 0 0 0 0 0 0 0 0 3 12 1 7 1 0 3 10 10 7 17 9 23 2 0 0 0 60 369 400 433 467 466 493 500 496 477 451 376 94 107
0 0 0 0 0 0 0 0 0 0 0 0 0 0 0 0 0 0 0 0 0 0 0 0 0 0 0 0 0 0 0 0 0 0 0 0 0 0 0 0 0 0 0 0 0 0 0 0 0 0 0 0 0 0 0 0 0 1 1 8 0 5 0 14 21 13 20 24 27 19 16 0 0 0 288 234 310 331 403 446 479 516 543 498 553 567 462 555
0 0 0 0 0 0 0 0 0 0 0 0 0 0 0 0 0 0 0 0 0 0 0 0 0 0 0 0 0 0 0 0 0 0 0 0 0 0 1 0 0 4 0 0 53 0 0 0 0 0 0 0 0 0 0 24 36 25 12 4 10 2 3 10 14 17 29 26 7 18 17 2 0 194 159 416 884 972 1152 920 674 594 794 1182 1205 937 738 576
0 0 0 0 0 0 0 0 0 0 0 0 0 0 0 0 0 0 0 0 0 0 0 0 0 0 0 0 0 0 0 0 0 0 0 0 0 0 63 0 0 0 4 1107 359 0 0 0 0 0 1 5 0 0 0 12 25 38 52 2 89 83 29 26 44 32 21 29 17 2 87 41 4 7 271 611 717 990 1210 1113 1091 1503 1664 1436 1130 971 1120 1198
0 0 0 0 0 0 0 0 0 0 0 0 0 0 0 0 0 0 0 0 0 0 0 0 0 0 0 0 0 0 0 0 0 2 1 9 0 92 108 43 3 453 3502 1861 800 0 0 0 0 0 0 0 19 14 7 0 31 21 20 31 40 40 23 15 12 17 8 9 14 5 4 0 84 212 340 817 1005 1187 1447 1608 1858 2047 1750 1315 1350 1876 2312 1550
0 0 0 0 0 0 0 0 0 0 0 0 0 0 0 0 0 0 1 0 0 0 0 0 0 0 0 0 0 0 0 2 2 25 22 241 190 213 227 109 15 486 1403 439 0 0 0 0 0 0 0 0 0 9 6 6 20 54 17 4 10 14 24 43 42 30 27 16 15 1 7 10 161 379 587 950 1268 1598 1818 2052 2179 2099 1845 1747 1759 1758 1716 1708
0 0 0 0 0 0 0 0 0 0 0 0 0 44 1 0 0 0 0 0 0 0 0 0 0 0 0 0 0 0 34 88 112 62 208 248 250 242 221 24 22 240 115 102 0 5 5 0 0 0 0 0 0 15 10 14 13 11 22 7 0 3 4 10 23 34 30 38 25 20 5 13 207 483 628 934 1325 1730 2152 2533 2540 2205 1890 1708 1873 1926 1958 1935
0 0 0 0 0 0 0 0 0 0 0 0 0 0 0 0 0 0 0 0 0 0 0 0 0 114 96 103 128 166 74 48 68 172 175 233 274 287 267 231 164 226 83 99 149 6 0 2 155 0 0 0 0 0 0 2 1 2 5 6 0 0 0 0 15 44 36 37 37 24 11 4 445 721 1245 1524 1978 2442 2784 2759 2720 2466 2276 2179 2158 2350 2445 2333
0 0 0 0 0 0 0 0 0 0 0 0 0 0 0 0 0 0 0 0 0 17 19 29 19 22 11 53 97 24 9 3 0 0 14 234 319 279 233 290 176 193 119 208 148 17 0 43 0 0 0 0 0 2 3 2 0 0 0 0 0 3 4 2 0 2 2 3 8 11 108 490 1013 1309 1537 1840 2306 2342 2148 2098 2403 2631 2550 2494 2395 2534 2690 2605
0 0 0 0 0 0 0 0 0 0 0 0 0 0 0 0 0 0 0 0 13 16 15 7 1 2 6 15 12 1 0 0 0 24 195 284 284 310 279 268 218 183 191 182 49 111 26 1 0 0 0 0 0 0 0 2 0 0 1 4 0 0 2 6 0 0 16 6 12 9 229 671 1232 1425 1570 1753 1474 1395 1501 1758 2070 2204 2266 2375 2299 2166 2418 2652
Wind_Speed
nan nan nan nan nan nan nan nan nan nan nan nan nan nan nan nan nan nan nan nan nan nan nan nan nan nan nan nan nan nan nan nan nan nan nan nan nan nan nan nan 31 28 22 16 16 19 20 21 20 18 17 16 12 12 12 9 9 5 5 5 6 nan 5 10 8 9 13 11 10 7 9 10 12 13 18 20 22 19 18 17 17 13 14 15 nan nan nan nan
nan nan nan nan nan nan nan nan nan nan nan nan nan nan nan nan nan nan nan nan nan nan nan nan nan nan nan nan nan nan nan nan nan nan nan nan nan nan nan 32 33 28 22 16 21 20 20 21 19 17 15 15 12 15 19 12 14 9 6 2 3 5 5 6 2 7 11 14 4 5 13 12 13 13 18 16 14 13 15 18 15 16 17 6 nan nan nan nan
nan nan nan nan nan nan nan nan nan nan nan nan nan nan nan nan nan nan nan nan nan nan nan nan nan nan nan nan nan nan nan nan nan nan nan nan nan 29 nan 33 35 29 24 21 21 21 21 22 19 16 17 13 13 16 19 12 15 15 8 5 4 2 4 1 1 6 9 10 7 10 16 16 15 15 17 16 11 14 12 11 13 12 13 nan nan nan nan nan
nan nan nan nan nan nan nan nan nan nan nan nan nan nan nan nan nan nan nan nan nan nan nan nan nan nan nan nan nan nan nan nan nan nan nan nan nan 29 nan 34 34 26 15 10 17 15 9 12 16 16 13 14 14 14 17 15 14 11 10 9 7 4 3 2 2 5 4 4 7 11 13 16 14 16 16 12 11 16 17 16 12 9 12 nan nan nan nan nan
nan nan nan nan nan nan nan nan nan nan nan nan nan nan nan nan nan nan nan nan nan nan nan nan nan nan nan nan nan nan nan nan nan 12 11 31 30 31 33 34 34 23 17 11 13 13 11 14 14 12 11 14 17 13 14 14 13 10 16 11 8 6 9 4 2 3 1 5 8 9 13 17 19 21 15 14 14 14 15 16 12 12 13 nan nan nan nan nan
nan nan nan nan nan nan nan nan nan nan nan nan nan nan nan nan nan nan nan nan nan nan nan nan nan nan nan nan nan nan nan nan nan nan 20 30 29 32 32 33 31 22 15 10 14 12 11 10 12 12 13 14 18 18 13 17 15 12 14 15 12 11 10 7 6 3 3 5 6 10 14 18 22 19 18 15 17 18 17 13 13 10 13 nan nan nan nan nan
nan nan nan nan nan nan nan nan nan nan nan nan nan nan nan nan nan nan nan nan nan nan nan nan nan nan nan nan nan nan nan nan nan 11 27 28 28 31 29 31 26 19 12 6 13 10 10 11 14 15 14 14 15 17 17 18 19 14 16 13 15 14 14 9 5 3 5 4 6 8 10 15 14 14 19 17 18 18 14 15 14 12 nan nan nan nan nan nan
nan nan nan nan nan nan nan nan nan nan nan nan nan nan nan nan nan nan nan nan nan nan nan nan nan nan nan nan nan nan nan nan nan 16 27 27 26 28 28 23 22 16 11 10 12 11 12 13 17 11 14 13 10 15 14 15 23 19 19 15 14 17 17 12 4 2 7 12 12 8 7 9 9 11 12 17 16 15 14 12 13 11 nan nan nan nan nan nan
nan nan nan nan nan nan nan nan nan nan nan nan nan nan nan nan nan nan nan nan nan nan nan nan nan nan nan nan nan nan nan nan 17 19 25 22 22 24 24 17 18 15 12 9 8 10 11 14 13 10 10 13 9 11 16 16 22 25 25 15 14 18 19 14 7 4 7 13 11 8 9 10 12 16 16 14 12 12 14 9 11 5 nan nan nan nan nan nan
nan nan nan nan nan nan nan nan nan nan nan nan nan nan nan nan nan nan nan nan nan nan nan nan nan nan nan nan nan nan nan 19 20 23 22 20 20 22 19 14 20 13 8 9 6 7 11 7 14 10 8 7 8 14 13 20 20 20 17 14 10 17 14 14 10 5 6 11 12 10 10 9 12 12 14 12 10 11 7 9 8 nan nan nan nan nan nan nan
nan nan nan nan nan nan nan nan nan nan nan nan nan nan nan nan nan nan nan nan nan nan nan nan nan nan nan nan nan nan 16 21 17 22 21 20 21 19 18 14 17 13 11 6 8 11 10 9 8 4 2 11 12 16 16 19 19 14 14 12 10 15 17 18 16 17 9 11 10 12 8 10 9 11 10 11 11 11 2 6 4 1 2 nan 4 nan nan nan
nan nan nan nan nan nan nan nan nan nan nan nan nan nan nan nan nan nan nan nan nan nan nan nan nan nan nan nan nan nan nan 17 20 21 21 21 17 19 18 15 16 16 12 8 10 9 9 12 2 4 6 8 16 11 15 16 18 20 20 18 19 25 24 24 24 25 15 11 8 11 7 9 8 8 10 8 10 12 6 5 3 2 3 5 5 nan nan nan
nan nan nan nan nan nan nan nan nan nan nan nan nan nan nan nan nan nan nan nan nan nan nan nan nan nan nan nan nan nan nan 21 19 21 15 12 12 10 10 9 10 12 12 8 8 6 7 9 8 10 3 6 nan 6 14 19 19 21 18 17 19 23 23 25 19 23 19 13 9 10 4 10 6 6 8 6 7 9 10 6 4 1 3 4 6 4 3 nan
nan nan nan nan nan nan nan nan nan nan nan nan nan nan nan nan nan nan nan nan nan nan nan nan nan nan nan nan nan nan nan nan nan 18 14 12 nan nan 7 4 4 3 2 4 6 6 5 3 5 8 6 nan 14 5 11 19 22 23 24 20 23 20 22 23 20 21 17 13 11 10 7 10 8 8 8 7 6 6 6 6 4 2 6 6 6 4 3 nan
nan nan nan nan nan nan nan nan nan nan nan nan nan nan nan nan nan nan nan nan nan nan nan nan nan nan nan nan nan nan 20 nan nan nan 16 nan nan nan 6 5 6 7 5 5 3 5 6 5 3 3 5 14 16 13 15 nan 24 26 24 26 23 23 20 20 19 22 18 14 12 8 9 8 9 11 9 7 6 5 5 5 4 3 7 6 5 5 6 nan
nan nan nan nan nan nan nan nan nan nan nan nan nan nan nan nan nan nan nan nan nan nan nan nan nan nan nan nan nan 24 nan nan nan nan nan nan nan nan nan 8 5 2 3 5 4 6 6 7 6 2 nan nan 18 12 21 nan nan 25 27 23 23 21 20 17 20 22 16 10 9 11 9 3 8 11 9 8 5 4 4 4 4 5 6 5 5 7 7 nan
nan nan nan nan nan nan nan nan nan nan nan nan nan nan nan nan nan nan nan nan nan nan nan nan nan nan nan nan nan nan nan nan nan nan nan nan nan nan nan nan 5 3 5 5 6 6 6 3 10 13 nan nan 12 11 nan nan nan nan nan 22 19 20 17 18 13 17 16 16 13 14 11 11 6 8 8 7 5 4 3 4 4 4 5 6 6 nan 8 nan
nan nan nan nan nan nan nan nan nan nan nan nan nan nan nan nan nan nan nan nan nan nan nan nan nan nan nan nan nan nan nan nan nan nan nan nan nan nan nan nan 9 6 7 2 7 6 4 5 5 4 nan nan 10 nan nan nan nan nan nan nan nan 15 19 16 16 17 17 19 14 13 13 14 7 7 8 8 6 5 5 4 4 3 4 nan nan nan 8 nan
nan nan nan nan nan nan nan nan nan nan nan nan nan nan nan nan nan nan nan nan nan nan nan nan nan nan nan nan nan nan nan nan nan nan nan nan nan nan nan nan 12 12 6 4 7 1 6 7 7 6 3 nan nan nan nan nan nan nan nan nan 21 19 18 16 17 12 18 16 11 12 11 12 8 7 7 7 7 7 7 7 7 6 nan nan nan 8 9 nan
nan nan nan nan nan nan nan nan nan nan nan nan nan nan nan nan nan nan nan nan nan nan nan nan nan nan nan nan nan nan nan nan nan nan nan nan nan nan nan 12 12 9 7 5 6 4 9 7 nan nan 3 nan nan nan 14 nan nan nan nan nan nan 24 18 15 17 18 17 9 14 14 13 8 9 8 9 9 9 9 9 10 8 8 7 9 nan 10 10 nan
nan nan nan nan nan nan nan nan nan nan nan nan nan nan nan nan nan nan nan nan nan nan nan nan nan nan nan nan nan nan nan nan nan nan 14 17 15 16 10 12 11 6 3 2 4 12 6 8 nan nan nan 7 nan 16 20 nan nan nan nan nan 28 25 21 23 21 20 16 7 12 12 13 12 11 11 11 10 12 13 12 13 12 9 10 11 12 12 12 13
nan nan nan nan nan nan nan nan nan nan nan nan nan nan nan nan nan nan nan nan nan nan nan nan nan nan nan nan nan nan nan nan nan nan nan 19 nan 13 14 10 9 4 7 5 8 11 8 nan nan nan nan nan nan 19 23 nan nan nan nan nan 22 19 16 18 13 16 14 4 11 10 13 14 12 13 14 14 16 15 15 16 16 14 14 15 16 16 nan 14
nan nan nan nan nan nan nan nan nan nan nan nan nan nan nan nan nan nan nan nan nan nan nan nan nan nan nan nan nan nan nan nan nan nan nan nan nan nan nan nan nan nan nan nan 7 6 nan nan nan nan nan nan nan nan nan nan nan nan nan nan 15 15 17 19 18 16 11 6 8 10 9 12 11 12 16 17 16 16 17 19 20 20 19 19 19 18 17 17
nan nan nan nan nan nan nan nan nan nan nan nan nan nan nan nan nan nan nan nan nan nan nan nan nan nan nan nan nan nan nan nan nan nan nan nan nan nan nan nan nan nan nan nan nan 4 nan nan nan nan nan nan nan 23 26 nan nan nan nan nan 9 16 16 19 22 16 12 5 4 5 7 10 11 12 16 19 16 15 18 20 22 22 20 18 17 17 17 16
nan nan nan nan nan nan nan nan nan nan nan nan nan nan nan nan nan nan nan nan nan nan nan nan nan nan nan nan nan nan nan nan nan nan nan nan nan nan nan nan nan nan nan nan nan nan nan nan nan nan nan nan 8 nan nan nan nan nan nan nan 18 22 14 11 21 13 7 7 7 6 8 13 12 13 16 15 13 17 16 17 22 21 18 15 16 15 15 nan
nan nan nan nan nan nan nan nan nan nan nan nan nan nan nan nan nan nan nan nan nan nan nan nan nan nan nan nan nan nan nan nan nan nan nan nan nan nan nan nan nan nan nan nan nan nan nan nan nan nan nan nan nan nan nan nan 24 nan nan nan 27 17 7 18 19 8 5 10 11 9 0 11 11 10 12 10 13 18 14 16 19 18 15 14 15 13 11 13
nan nan nan nan nan nan nan nan nan nan nan nan nan nan nan nan nan nan nan nan nan nan nan nan nan nan nan nan nan nan nan nan nan nan nan nan nan nan nan nan nan nan nan nan nan nan nan nan nan nan nan nan nan nan 27 nan nan 21 nan nan 10 8 3 11 18 11 5 6 4 12 1 4 11 16 10 6 9 14 14 15 15 15 13 13 14 13 10 11
nan nan nan nan nan nan nan nan nan nan nan nan nan nan nan nan nan nan nan nan nan nan nan nan nan nan nan nan nan nan nan nan nan nan nan nan nan nan nan nan nan nan nan nan nan nan nan nan nan nan nan nan nan 24 nan nan nan nan nan nan 17 18 11 12 13 10 3 3 5 11 5 8 10 16 7 1 6 13 16 13 13 13 11 10 13 12 10 9
nan nan nan nan nan nan nan nan nan nan nan nan nan nan nan nan nan nan nan nan nan nan nan nan nan nan nan nan nan nan nan nan nan nan nan nan nan nan nan nan nan nan nan nan nan nan nan nan nan nan nan nan nan nan nan 21 24 nan nan nan nan nan 16 16 16 17 11 7 9 15 8 6 11 12 7 7 5 11 15 14 11 11 9 8 10 10 9 7
nan nan nan nan nan nan nan nan nan nan nan nan nan nan nan nan nan nan nan nan nan nan nan nan nan nan nan nan nan nan nan nan nan nan nan nan nan nan nan nan nan nan nan nan nan nan nan nan nan nan nan nan nan nan nan nan 23 26 nan nan nan nan nan 9 11 19 16 4 10 19 13 4 10 nan 5 4 9 12 10 9 7 7 6 8 9 9 7 7
nan nan nan nan nan nan nan nan nan nan nan nan nan nan nan nan nan nan nan nan nan nan nan nan nan nan nan nan nan nan nan nan nan nan nan nan nan nan nan nan nan nan nan nan nan nan nan nan 11 10 nan nan nan 25 23 19 nan nan 23 nan 22 nan nan 12 14 16 11 8 nan 16 15 nan nan nan 9 12 11 7 9 12 10 8 8 8 8 8 9 11
nan nan nan nan nan nan nan nan nan nan nan nan nan nan nan nan nan nan nan nan nan nan nan nan nan nan nan nan nan nan nan nan nan nan nan nan nan nan nan nan nan nan nan nan nan nan nan nan nan 10 8 7 13 nan nan 24 23 nan nan 26 nan nan nan 17 17 nan 8 nan nan nan nan nan nan nan 11 18 9 4 9 10 12 10 8 8 8 9 10 12
nan nan nan nan nan nan nan nan nan nan nan nan nan nan nan nan nan nan nan nan nan nan nan nan nan nan nan nan nan nan nan nan nan nan nan nan nan nan nan nan nan nan nan nan nan nan nan nan nan 5 10 5 6 10 nan 27 24 nan 21 22 nan 30 nan nan 9 nan nan nan nan nan nan nan nan nan nan 18 nan 9 11 11 12 11 9 10 10 10 11 13
nan nan nan nan nan nan nan nan nan nan nan nan nan nan nan nan nan 12 nan nan nan nan nan nan nan nan nan nan nan nan nan nan nan nan nan nan nan nan nan nan nan nan nan nan nan nan nan nan nan nan 7 3 1 nan nan 22 26 19 16 17 23 nan nan nan nan nan nan nan nan nan nan nan nan nan nan nan nan nan 11 10 8 9 9 10 11 11 12 13
nan nan nan nan nan nan nan nan nan nan nan nan nan nan nan nan nan nan nan nan nan nan nan nan nan nan nan nan nan nan nan nan nan nan nan nan nan nan nan nan nan nan nan nan nan nan nan nan nan nan nan 5 10 nan nan nan 29 23 19 nan nan 25 nan nan nan nan nan nan nan nan nan nan nan nan nan nan nan nan 12 10 6 3 4 4 6 11 13 12
nan nan nan nan nan nan nan nan nan nan nan nan nan nan nan nan nan nan nan nan nan nan nan nan nan nan nan nan nan nan nan nan nan nan nan nan nan nan nan nan nan nan nan nan nan nan nan nan nan nan nan nan nan nan nan nan 24 23 nan nan 18 14 nan nan nan nan nan nan nan nan nan nan nan nan nan nan nan nan nan 10 4 3 6 7 11 15 15 13
nan nan nan nan nan nan nan nan nan nan nan nan nan nan nan nan nan nan nan nan nan nan nan nan nan nan nan nan nan nan nan nan nan nan nan nan nan nan nan nan nan nan nan nan nan nan nan nan nan nan nan nan nan nan nan 14 21 24 nan 21 22 14 nan nan nan nan nan nan nan nan nan nan nan nan nan nan nan nan 12 8 4 6 8 11 14 16 15 15
nan nan nan nan nan nan nan nan nan nan nan nan nan nan nan nan nan nan nan nan nan nan nan nan nan nan nan nan nan nan nan nan nan nan nan nan nan nan nan nan nan nan nan nan nan nan nan nan nan nan nan nan nan nan nan nan nan 17 23 nan nan nan nan nan nan nan nan nan nan nan nan nan nan nan nan nan nan nan 11 8 6 8 10 13 14 14 12 12
nan nan nan nan nan nan nan nan nan nan nan nan nan nan nan nan nan nan nan nan nan nan nan nan nan nan nan nan nan nan nan nan nan nan nan nan nan nan nan nan nan nan nan nan nan nan nan nan nan nan nan nan nan nan nan nan nan 31 29 29 nan nan nan nan nan nan nan nan nan nan nan nan nan nan nan nan nan nan 14 11 12 14 15 16 17 19 17 14
nan nan nan nan nan nan nan nan nan nan nan nan nan nan nan nan nan nan nan nan nan nan nan nan nan nan nan nan nan nan nan nan nan nan nan nan nan nan nan nan nan nan nan nan nan nan nan nan nan nan nan nan nan nan nan nan nan nan nan nan nan nan nan nan nan nan nan nan nan nan nan nan nan nan nan nan nan nan 17 16 15 16 16 19 21 21 19 16
nan nan nan nan nan nan nan nan nan nan nan nan nan nan nan nan nan nan nan nan nan nan nan nan nan nan nan nan nan nan nan nan nan nan nan nan nan nan nan nan nan nan nan nan nan nan nan nan nan nan nan nan nan nan nan 10 nan nan nan nan nan nan nan nan nan nan nan nan nan nan nan nan nan nan nan nan nan nan 15 19 17 17 18 21 22 nan nan 23
nan nan nan nan nan nan nan nan nan nan nan nan nan nan nan nan nan nan nan nan nan nan nan nan nan nan nan nan nan nan nan nan nan nan nan nan nan nan nan nan nan nan nan nan nan nan nan nan nan nan nan nan nan nan nan nan nan nan nan nan nan nan nan nan nan nan nan nan nan nan nan nan nan nan nan nan 15 16 19 22 20 18 21 24 25 nan 26 30
nan nan nan nan nan nan nan nan nan nan nan nan nan nan nan nan nan nan nan nan nan nan nan nan nan nan nan nan nan nan nan nan nan nan nan nan nan nan nan nan nan nan nan nan nan nan nan nan nan nan nan nan nan nan nan nan nan nan nan nan nan nan nan nan nan nan nan nan nan nan nan nan nan nan nan 17 21 24 25 28 26 23 24 27 29 28 nan 26
nan nan nan nan nan nan nan nan nan nan nan nan nan nan nan nan nan nan nan nan nan nan nan nan nan nan nan nan nan nan nan nan nan nan nan nan nan nan nan nan nan nan nan nan nan nan nan nan nan nan nan nan nan nan nan nan nan nan nan nan nan nan nan nan nan nan nan nan nan nan nan nan nan nan 9 15 18 19 21 20 25 26 25 29 31 31 29 24
nan nan nan nan nan nan nan nan nan nan nan nan nan nan nan nan nan nan nan nan nan nan nan nan nan nan nan nan nan nan nan nan nan nan nan nan nan nan nan nan nan nan nan nan nan nan nan nan nan nan nan nan nan nan nan nan nan nan nan nan nan nan nan nan nan nan nan nan nan nan nan nan nan 13 17 21 24 21 19 22 21 27 34 35 32 31 26 20
nan nan nan nan nan nan nan nan nan nan nan nan nan nan nan nan nan nan nan nan nan nan nan nan nan nan nan nan nan nan nan nan nan nan nan nan nan nan nan nan nan nan nan 12 16 nan nan nan nan nan nan nan nan nan nan nan nan nan nan nan nan nan nan nan nan nan nan nan nan nan nan nan nan nan 18 17 23 22 20 23 29 30 32 34 29 22 17 15
nan nan nan nan nan nan nan nan nan nan nan nan nan nan nan nan nan nan nan nan nan nan nan nan nan nan nan nan nan nan nan nan nan nan nan nan nan nan 30 nan nan 30 12 13 22 nan nan nan nan nan nan nan nan nan nan nan nan nan nan nan nan nan nan nan nan nan nan nan nan nan nan nan nan 12 16 19 22 24 26 28 31 34 34 35 30 22 19 19
nan nan nan nan nan nan nan nan nan nan nan nan nan nan nan nan nan nan nan nan nan nan nan nan nan nan nan nan nan nan nan nan nan nan nan 38 37 38 34 30 nan 38 31 19 nan nan nan nan nan nan nan nan nan nan nan nan nan nan nan nan nan nan nan nan nan nan nan nan nan nan nan nan 14 25 29 30 31 31 33 32 33 35 36 34 33 29 28 27
nan nan nan nan nan nan nan nan nan nan nan nan nan nan nan nan nan nan nan nan nan nan nan nan nan nan nan nan nan nan nan nan 38 nan 39 42 41 40 35 nan nan 38 36 32 nan nan nan nan nan nan nan nan nan nan nan nan nan nan nan nan nan nan nan nan nan nan nan nan nan nan nan nan 19 21 27 28 28 33 32 32 33 36 37 35 37 36 36 34
nan nan nan nan nan nan nan nan nan nan nan nan nan nan nan nan nan nan nan nan nan nan nan nan nan 36 nan 44 48 43 nan nan nan 39 40 40 41 41 34 26 28 34 nan nan 29 nan nan nan 20 nan nan nan nan nan nan nan nan nan nan nan nan nan nan nan nan nan nan nan nan nan nan nan 19 20 25 27 29 34 37 36 36 36 36 37 38 37 37 35
nan nan nan nan nan nan nan nan nan nan nan nan nan nan nan nan nan nan nan nan nan nan nan nan nan nan nan nan nan nan nan nan nan nan nan 38 41 40 36 29 28 30 35 35 33 nan nan nan nan nan nan nan nan nan nan nan nan nan nan nan nan nan nan nan nan nan nan nan nan nan 28 22 21 29 29 33 31 32 34 32 32 31 32 35 37 36 36 36
nan nan nan nan nan nan nan nan nan nan nan nan nan nan nan nan nan nan nan nan nan nan nan nan nan nan nan nan nan nan nan nan nan nan 39 36 39 43 37 28 23 24 27 33 nan 29 nan nan nan nan nan nan nan nan nan nan nan nan nan nan nan nan nan nan nan nan nan nan nan nan 18 19 27 31 36 30 33 30 31 30 33 32 31 34 35 35 34 35
Wind_Direction
nan nan nan nan nan nan nan nan nan nan nan nan nan nan nan nan nan nan nan nan nan nan nan nan nan nan nan nan nan nan nan nan nan nan nan nan nan nan nan nan 350 349 342 344 343 348 356 9 22 14 23 17 18 10 359 347 357 10 287 269 259 nan 236 240 236 236 219 217 218 222 215 212 213 194 177 178 181 171 163 140 136 136 133 131 nan nan nan nan
nan nan nan nan nan nan nan nan nan nan nan nan nan nan nan nan nan nan nan nan nan nan nan nan nan nan nan nan nan nan nan nan nan nan nan nan nan nan nan 347 345 347 340 352 352 1 353 16 18 4 7 26 9 10 351 10 4 10 35 270 271 273 267 278 238 214 223 223 225 222 196 182 211 201 179 170 166 162 155 141 136 139 137 123 nan nan nan nan
nan nan nan nan nan nan nan nan nan nan nan nan nan nan nan nan nan nan nan nan nan nan nan nan nan nan nan nan nan nan nan nan nan nan nan nan nan 343 nan 347 346 350 353 353 5 1 6 8 8 359 13 19 19 8 11 16 18 29 31 54 78 287 248 227 183 215 230 183 196 203 190 188 188 193 178 166 157 148 123 122 131 124 119 nan nan nan nan nan
nan nan nan nan nan nan nan nan nan nan nan nan nan nan nan nan nan nan nan nan nan nan nan nan nan nan nan nan nan nan nan nan nan nan nan nan nan 341 nan 346 348 352 351 17 359 9 4 350 360 356 10 28 24 11 13 22 26 42 44 55 70 20 25 44 226 224 209 136 194 207 191 203 177 169 178 171 166 133 126 114 117 84 91 nan nan nan nan nan
nan nan nan nan nan nan nan nan nan nan nan nan nan nan nan nan nan nan nan nan nan nan nan nan nan nan nan nan nan nan nan nan nan 294 303 328 335 336 342 346 348 349 4 6 358 16 348 357 4 14 12 27 19 20 40 18 38 40 49 55 48 48 54 38 42 206 240 145 212 213 213 198 167 159 165 152 138 123 109 103 102 86 99 nan nan nan nan nan
nan nan nan nan nan nan nan nan nan nan nan nan nan nan nan nan nan nan nan nan nan nan nan nan nan nan nan nan nan nan nan nan nan nan 311 325 328 332 341 345 349 350 2 18 5 12 349 7 3 19 25 23 24 28 36 25 25 56 58 55 52 63 61 34 29 80 174 194 178 197 184 183 159 157 152 132 126 134 130 111 94 105 111 nan nan nan nan nan
nan nan nan nan nan nan nan nan nan nan nan nan nan nan nan nan nan nan nan nan nan nan nan nan nan nan nan nan nan nan nan nan nan 289 311 321 325 329 337 345 347 349 355 19 24 12 21 2 13 24 17 31 42 44 38 29 35 43 56 52 69 73 66 54 38 103 131 170 168 188 185 170 147 150 140 132 126 127 124 115 118 115 nan nan nan nan nan nan
nan nan nan nan nan nan nan nan nan nan nan nan nan nan nan nan nan nan nan nan nan nan nan nan nan nan nan nan nan nan nan nan nan 288 314 317 319 328 334 341 346 348 358 31 15 17 14 11 20 20 37 35 38 37 39 35 42 42 50 49 62 71 69 61 37 137 141 133 153 180 171 152 133 142 133 123 118 119 124 115 124 124 nan nan nan nan nan nan
nan nan nan nan nan nan nan nan nan nan nan nan nan nan nan nan nan nan nan nan nan nan nan nan nan nan nan nan nan nan nan nan 284 294 302 311 320 323 329 336 351 347 9 38 68 15 19 32 19 16 51 57 68 62 48 58 71 51 44 32 48 67 65 68 37 305 145 133 135 141 139 145 137 151 133 126 138 135 134 130 118 116 nan nan nan nan nan nan
nan nan nan nan nan nan nan nan nan nan nan nan nan nan nan nan nan nan nan nan nan nan nan nan nan nan nan nan nan nan nan 256 267 287 292 301 309 320 337 330 343 345 355 48 84 79 41 28 18 12 57 80 73 62 44 50 69 56 53 40 30 68 57 84 75 43 149 150 123 134 144 153 150 152 150 143 149 145 146 109 127 nan nan nan nan nan nan nan
nan nan nan nan nan nan nan nan nan nan nan nan nan nan nan nan nan nan nan nan nan nan nan nan nan nan nan nan nan nan 258 260 263 278 287 295 310 320 345 340 344 339 4 30 59 59 79 84 19 248 42 69 68 65 34 56 55 50 38 39 30 56 49 53 59 60 110 142 137 127 152 155 159 166 154 148 152 169 56 128 138 84 65 nan 117 nan nan nan
nan nan nan nan nan nan nan nan nan nan nan nan nan nan nan nan nan nan nan nan nan nan nan nan nan nan nan nan nan nan nan 256 280 280 288 303 318 339 340 335 338 346 351 6 49 69 74 87 83 183 129 88 74 71 68 68 56 37 31 49 40 43 29 21 29 50 67 107 113 118 170 152 159 157 150 155 178 182 208 188 189 26 68 67 127 nan nan nan
nan nan nan nan nan nan nan nan nan nan nan nan nan nan nan nan nan nan nan nan nan nan nan nan nan nan nan nan nan nan nan 267 271 281 285 303 281 286 305 326 341 349 357 5 38 78 107 121 159 150 157 98 nan 66 81 83 68 38 51 47 57 63 47 32 34 37 50 84 92 128 111 112 126 136 146 175 195 189 197 189 163 119 109 121 135 102 122 nan
nan nan nan nan nan nan nan nan nan nan nan nan nan nan nan nan nan nan nan nan nan nan nan nan nan nan nan nan nan nan nan nan nan 273 284 273 nan nan 282 285 337 8 24 72 128 175 138 144 208 181 162 nan 95 140 118 94 74 59 53 43 46 49 50 32 32 39 40 77 76 117 113 106 101 102 126 155 193 202 194 171 135 128 152 151 147 133 135 nan
nan nan nan nan nan nan nan nan nan nan nan nan nan nan nan nan nan nan nan nan nan nan nan nan nan nan nan nan nan nan 278 nan nan nan 278 nan nan nan 301 285 315 13 49 71 138 145 142 156 201 128 136 90 110 120 98 nan 77 64 50 49 45 41 53 39 36 33 32 65 68 103 101 72 71 78 97 124 153 170 172 153 118 114 156 152 146 152 158 nan
nan nan nan nan nan nan nan nan nan nan nan nan nan nan nan nan nan nan nan nan nan nan nan nan nan nan nan nan nan 247 nan nan nan nan nan nan nan nan nan 298 266 334 40 96 124 162 179 185 154 158 nan nan 113 99 92 nan nan 63 46 47 35 31 49 44 41 36 45 37 64 58 84 91 94 79 85 106 113 119 148 149 137 145 145 144 134 157 154 nan
nan nan nan nan nan nan nan nan nan nan nan nan nan nan nan nan nan nan nan nan nan nan nan nan nan nan nan nan nan nan nan nan nan nan nan nan nan nan nan nan 245 316 341 84 132 158 153 207 238 200 nan nan 133 114 nan nan nan nan nan 48 35 26 41 52 36 33 32 22 33 57 79 69 79 47 74 94 90 80 110 139 155 158 132 149 140 nan 143 nan
nan nan nan nan nan nan nan nan nan nan nan nan nan nan nan nan nan nan nan nan nan nan nan nan nan nan nan nan nan nan nan nan nan nan nan nan nan nan nan nan 237 287 288 137 138 135 156 221 297 223 nan nan 141 nan nan nan nan nan nan nan nan 40 40 42 33 32 20 44 30 35 76 93 82 33 61 69 94 103 89 122 151 165 116 nan nan nan 137 nan
nan nan nan nan nan nan nan nan nan nan nan nan nan nan nan nan nan nan nan nan nan nan nan nan nan nan nan nan nan nan nan nan nan nan nan nan nan nan nan nan 245 271 271 253 191 165 188 182 213 227 184 nan nan nan nan nan nan nan nan nan 48 35 42 47 45 20 16 36 45 25 55 70 73 42 60 79 88 94 99 121 153 155 nan nan nan 120 125 nan
nan nan nan nan nan nan nan nan nan nan nan nan nan nan nan nan nan nan nan nan nan nan nan nan nan nan nan nan nan nan nan nan nan nan nan nan nan nan nan 243 243 259 263 251 185 154 215 198 nan nan 248 nan nan nan 82 nan nan nan nan nan nan 27 36 47 35 23 23 40 56 46 62 66 49 49 54 66 84 102 102 103 123 143 114 115 nan 108 111 nan
nan nan nan nan nan nan nan nan nan nan nan nan nan nan nan nan nan nan nan nan nan nan nan nan nan nan nan nan nan nan nan nan nan nan 259 265 260 252 230 246 247 249 271 223 192 206 221 180 nan nan nan 9 nan 76 91 nan nan nan nan nan 44 29 49 42 27 14 23 39 74 66 70 78 55 66 68 76 73 84 89 97 105 116 110 100 93 95 100 105
nan nan nan nan nan nan nan nan nan nan nan nan nan nan nan nan nan nan nan nan nan nan nan nan nan nan nan nan nan nan nan nan nan nan nan 265 nan 257 229 245 253 234 233 217 200 186 193 nan nan nan nan nan nan 89 98 nan nan nan nan nan 38 41 50 39 23 14 14 49 92 70 66 76 68 67 76 71 66 82 86 87 92 98 102 97 94 89 nan 103
nan nan nan nan nan nan nan nan nan nan nan nan nan nan nan nan nan nan nan nan nan nan nan nan nan nan nan nan nan nan nan nan nan nan nan nan nan nan nan nan nan nan nan nan 233 185 nan nan nan nan nan nan nan nan nan nan nan nan nan nan 39 28 6 25 18 13 26 53 92 82 60 93 97 94 84 86 83 97 90 85 85 86 85 86 85 86 86 88
nan nan nan nan nan nan nan nan nan nan nan nan nan nan nan nan nan nan nan nan nan nan nan nan nan nan nan nan nan nan nan nan nan nan nan nan nan nan nan nan nan nan nan nan nan 205 nan nan nan nan nan nan nan 109 115 nan nan nan nan nan 73 15 26 360 5 14 27 78 152 130 126 112 89 84 97 94 99 104 99 92 90 89 86 89 91 88 85 77
nan nan nan nan nan nan nan nan nan nan nan nan nan nan nan nan nan nan nan nan nan nan nan nan nan nan nan nan nan nan nan nan nan nan nan nan nan nan nan nan nan nan nan nan nan nan nan nan nan nan nan nan 113 nan nan nan nan nan nan nan 32 30 15 350 343 359 57 68 87 43 129 114 87 65 74 90 101 87 92 89 82 83 86 88 87 86 89 nan
nan nan nan nan nan nan nan nan nan nan nan nan nan nan nan nan nan nan nan nan nan nan nan nan nan nan nan nan nan nan nan nan nan nan nan nan nan nan nan nan nan nan nan nan nan nan nan nan nan nan nan nan nan nan nan nan 116 nan nan nan 25 25 358 334 339 330 50 44 67 49 97 133 130 79 76 87 85 76 88 82 79 84 85 82 78 76 78 66
nan nan nan nan nan nan nan nan nan nan nan nan nan nan nan nan nan nan nan nan nan nan nan nan nan nan nan nan nan nan nan nan nan nan nan nan nan nan nan nan nan nan nan nan nan nan nan nan nan nan nan nan nan nan 129 nan nan 137 nan nan 24 196 104 335 328 343 37 105 115 26 86 175 147 114 86 70 82 83 85 84 81 84 85 81 75 67 70 63
nan nan nan nan nan nan nan nan nan nan nan nan nan nan nan nan nan nan nan nan nan nan nan nan nan nan nan nan nan nan nan nan nan nan nan nan nan nan nan nan nan nan nan nan nan nan nan nan nan nan nan nan nan 126 nan nan nan nan nan nan 346 15 24 355 336 338 300 281 16 29 91 170 147 132 146 163 119 109 93 83 80 81 81 78 77 65 57 51
nan nan nan nan nan nan nan nan nan nan nan nan nan nan nan nan nan nan nan nan nan nan nan nan nan nan nan nan nan nan nan nan nan nan nan nan nan nan nan nan nan nan nan nan nan nan nan nan nan nan nan nan nan nan nan 135 139 nan nan nan nan nan 6 353 346 315 290 278 4 14 23 185 153 148 170 163 114 93 87 75 71 66 62 68 71 74 54 37
nan nan nan nan nan nan nan nan nan nan nan nan nan nan nan nan nan nan nan nan nan nan nan nan nan nan nan nan nan nan nan nan nan nan nan nan nan nan nan nan nan nan nan nan nan nan nan nan nan nan nan nan nan nan nan nan 121 136 nan nan nan nan nan 341 307 296 279 290 23 8 4 215 167 nan 116 187 106 62 65 83 74 63 62 59 61 61 54 31
nan nan nan nan nan nan nan nan nan nan nan nan nan nan nan nan nan nan nan nan nan nan nan nan nan nan nan nan nan nan nan nan nan nan nan nan nan nan nan nan nan nan nan nan nan nan nan nan 207 189 nan nan nan 159 161 150 nan nan 151 nan 165 nan nan 277 256 281 303 32 nan 359 1 nan nan nan 126 76 86 47 20 20 17 18 28 41 53 53 39 26
nan nan nan nan nan nan nan nan nan nan nan nan nan nan nan nan nan nan nan nan nan nan nan nan nan nan nan nan nan nan nan nan nan nan nan nan nan nan nan nan nan nan nan nan nan nan nan nan nan 179 189 225 176 nan nan 180 179 nan nan 174 nan nan nan 217 249 nan 359 nan nan nan nan nan nan nan 50 51 59 51 20 6 1 7 11 23 38 26 23 21
nan nan nan nan nan nan nan nan nan nan nan nan nan nan nan nan nan nan nan nan nan nan nan nan nan nan nan nan nan nan nan nan nan nan nan nan nan nan nan nan nan nan nan nan nan nan nan nan nan 168 181 181 215 190 nan 181 180 nan 174 184 nan 177 nan nan 242 nan nan nan nan nan nan nan nan nan nan 38 nan 22 10 1 7 3 5 11 18 17 13 14
nan nan nan nan nan nan nan nan nan nan nan nan nan nan nan nan nan 167 nan nan nan nan nan nan nan nan nan nan nan nan nan nan nan nan nan nan nan nan nan nan nan nan nan nan nan nan nan nan nan nan 140 175 87 nan nan 182 186 178 187 190 185 nan nan nan nan nan nan nan nan nan nan nan nan nan nan nan nan nan 3 352 354 5 14 11 12 17 12 4
nan nan nan nan nan nan nan nan nan nan nan nan nan nan nan nan nan nan nan nan nan nan nan nan nan nan nan nan nan nan nan nan nan nan nan nan nan nan nan nan nan nan nan nan nan nan nan nan nan nan nan 82 46 nan nan nan 187 181 188 nan nan 173 nan nan nan nan nan nan nan nan nan nan nan nan nan nan nan nan 345 337 305 350 35 14 15 16 12 4
nan nan nan nan nan nan nan nan nan nan nan nan nan nan nan nan nan nan nan nan nan nan nan nan nan nan nan nan nan nan nan nan nan nan nan nan nan nan nan nan nan nan nan nan nan nan nan nan nan nan nan nan nan nan nan nan 195 182 nan nan 164 170 nan nan nan nan nan nan nan nan nan nan nan nan nan nan nan nan nan 327 311 19 27 24 30 32 38 36
nan nan nan nan nan nan nan nan nan nan nan nan nan nan nan nan nan nan nan nan nan nan nan nan nan nan nan nan nan nan nan nan nan nan nan nan nan nan nan nan nan nan nan nan nan nan nan nan nan nan nan nan nan nan nan 203 201 195 nan 147 165 177 nan nan nan nan nan nan nan nan nan nan nan nan nan nan nan nan 347 340 342 353 12 36 39 42 50 41
nan nan nan nan nan nan nan nan nan nan nan nan nan nan nan nan nan nan nan nan nan nan nan nan nan nan nan nan nan nan nan nan nan nan nan nan nan nan nan nan nan nan nan nan nan nan nan nan nan nan nan nan nan nan nan nan nan 167 142 nan nan nan nan nan nan nan nan nan nan nan nan nan nan nan nan nan nan nan 355 353 312 337 18 34 23 15 13 13
nan nan nan nan nan nan nan nan nan nan nan nan nan nan nan nan nan nan nan nan nan nan nan nan nan nan nan nan nan nan nan nan nan nan nan nan nan nan nan nan nan nan nan nan nan nan nan nan nan nan nan nan nan nan nan nan nan 156 166 162 nan nan nan nan nan nan nan nan nan nan nan nan nan nan nan nan nan nan 350 333 338 350 14 9 352 347 345 351
nan nan nan nan nan nan nan nan nan nan nan nan nan nan nan nan nan nan nan nan nan nan nan nan nan nan nan nan nan nan nan nan nan nan nan nan nan nan nan nan nan nan nan nan nan nan nan nan nan nan nan nan nan nan nan nan nan nan nan nan nan nan nan nan nan nan nan nan nan nan nan nan nan nan nan nan nan nan 335 331 333 353 0 350 342 343 341 340
nan nan nan nan nan nan nan nan nan nan nan nan nan nan nan nan nan nan nan nan nan nan nan nan nan nan nan nan nan nan nan nan nan nan nan nan nan nan nan nan nan nan nan nan nan nan nan nan nan nan nan nan nan nan nan 346 nan nan nan nan nan nan nan nan nan nan nan nan nan nan nan nan nan nan nan nan nan nan 317 320 331 344 345 340 336 nan nan 322
nan nan nan nan nan nan nan nan nan nan nan nan nan nan nan nan nan nan nan nan nan nan nan nan nan nan nan nan nan nan nan nan nan nan nan nan nan nan nan nan nan nan nan nan nan nan nan nan nan nan nan nan nan nan nan nan nan nan nan nan nan nan nan nan nan nan nan nan nan nan nan nan nan nan nan nan 311 318 327 326 327 333 333 330 326 nan 317 324
nan nan nan nan nan nan nan nan nan nan nan nan nan nan nan nan nan nan nan nan nan nan nan nan nan nan nan nan nan nan nan nan nan nan nan nan nan nan nan nan nan nan nan nan nan nan nan nan nan nan nan nan nan nan nan nan nan nan nan nan nan nan nan nan nan nan nan nan nan nan nan nan nan nan nan 312 326 329 329 327 324 320 317 320 311 299 nan 317
nan nan nan nan nan nan nan nan nan nan nan nan nan nan nan nan nan nan nan nan nan nan nan nan nan nan nan nan nan nan nan nan nan nan nan nan nan nan nan nan nan nan nan nan nan nan nan nan nan nan nan nan nan nan nan nan nan nan nan nan nan nan nan nan nan nan nan nan nan nan nan nan nan nan 255 267 283 297 303 300 308 307 295 291 293 295 299 303
nan nan nan nan nan nan nan nan nan nan nan nan nan nan nan nan nan nan nan nan nan nan nan nan nan nan nan nan nan nan nan nan nan nan nan nan nan nan nan nan nan nan nan nan nan nan nan nan nan nan nan nan nan nan nan nan nan nan nan nan nan nan nan nan nan nan nan nan nan nan nan nan nan 248 258 261 268 268 278 285 283 295 301 307 307 304 304 308
nan nan nan nan nan nan nan nan nan nan nan nan nan nan nan nan nan nan nan nan nan nan nan nan nan nan nan nan nan nan nan nan nan nan nan nan nan nan nan nan nan nan nan 277 247 nan nan nan nan nan nan nan nan nan nan nan nan nan nan nan nan nan nan nan nan nan nan nan nan nan nan nan nan nan 254 271 280 284 284 291 298 298 303 307 305 297 299 303
nan nan nan nan nan nan nan nan nan nan nan nan nan nan nan nan nan nan nan nan nan nan nan nan nan nan nan nan nan nan nan nan nan nan nan nan nan nan 186 nan nan 185 189 252 263 nan nan nan nan nan nan nan nan nan nan nan nan nan nan nan nan nan nan nan nan nan nan nan nan nan nan nan nan 278 283 278 278 286 296 299 299 299 301 306 307 301 295 292
nan nan nan nan nan nan nan nan nan nan nan nan nan nan nan nan nan nan nan nan nan nan nan nan nan nan nan nan nan nan nan nan nan nan nan 189 190 192 191 177 nan 192 187 202 nan nan nan nan nan nan nan nan nan nan nan nan nan nan nan nan nan nan nan nan nan nan nan nan nan nan nan nan 302 311 308 302 299 301 306 307 303 302 302 306 305 303 305 304
nan nan nan nan nan nan nan nan nan nan nan nan nan nan nan nan nan nan nan nan nan nan nan nan nan nan nan nan nan nan nan nan 192 nan 197 190 196 195 189 nan nan 197 197 199 nan nan nan nan nan nan nan nan nan nan nan nan nan nan nan nan nan nan nan nan nan nan nan nan nan nan nan nan 283 301 306 299 292 291 283 282 288 296 304 306 303 306 309 310
nan nan nan nan nan nan nan nan nan nan nan nan nan nan nan nan nan nan nan nan nan nan nan nan nan 213 nan 206 210 211 nan nan nan 193 190 194 193 196 189 195 190 198 nan nan 203 nan nan nan 245 nan nan nan nan nan nan nan nan nan nan nan nan nan nan nan nan nan nan nan nan nan nan nan 237 251 258 256 261 268 278 287 293 298 299 298 299 306 310 310
nan nan nan nan nan nan nan nan nan nan nan nan nan nan nan nan nan nan nan nan nan nan nan nan nan nan nan nan nan nan nan nan nan nan nan 204 197 192 198 198 201 192 195 201 201 nan nan nan nan nan nan nan nan nan nan nan nan nan nan nan nan nan nan nan nan nan nan nan nan nan 236 245 246 256 259 260 263 272 283 283 281 283 287 290 296 304 305 307
nan nan nan nan nan nan nan nan nan nan nan nan nan nan nan nan nan nan nan nan nan nan nan nan nan nan nan nan nan nan nan nan nan nan 203 205 196 193 199 199 193 182 187 197 nan 206 nan nan nan nan nan nan nan nan nan nan nan nan nan nan nan nan nan nan nan nan nan nan nan nan 247 259 270 270 271 267 272 272 276 282 284 282 284 289 295 298 299 301